Location: Newark
(13.4500°N, 15.3000°W)
Time: 13:55:04
(UTC+00:00)

X-37B - Visible Passes

Search period start: 29 September 2020 00:00
Search period end: 09 October 2020 00:00
Orbit: 386 x 387 km, 45.0° (Epoch: 18 September)

Date Brightness Start Highest point End Pass type
(mag) Time Alt. Az. Time Alt. Az. Time Alt. Az.
29 Sep 0.4 05:33:54 88° N 05:33:56 88° NE 05:37:05 10° SE visible
30 Sep 2.8 06:11:25 11° SW 06:11:46 11° SW 06:12:49 10° SSW visible
30 Sep 2.9 19:21:49 10° W 19:24:23 23° NW 19:26:57 10° NNE visible
